| time (UTC) | temp F | wind direction | speed MPH | gust MPH | rain 1hr in | rain 24hr in | rain mn in | humidity % | barometer mb |
| 20260504020153 | 61 | 196 | 21.0 | 32.0 | 0.00 | 0.00 | 0.00 | 41 | 1010.8 |
| 20260504015153 | 63 | 139 | 16.0 | 31.0 | 0.00 | 0.00 | 0.00 | 34 | 1010.6 |
| 20260504014153 | 63 | 222 | 16.0 | 29.0 | 0.00 | 0.00 | 0.00 | 34 | 1010.0 |
| 20260504013153 | 64 | 238 | 2.0 | 20.0 | 0.00 | 0.00 | 0.00 | 31 | 1010.1 |
| 20260504012153 | 65 | 235 | 21.0 | 30.0 | 0.00 | 0.00 | 0.00 | 30 | 1010.0 |
| 20260504011153 | 66 | 218 | 12.0 | 34.0 | 0.00 | 0.00 | 0.00 | 27 | 1009.6 |
| 20260504010153 | 67 | 134 | 17.0 | 26.0 | 0.00 | 0.00 | 0.00 | 26 | 1009.0 |
| 20260504005153 | 67 | 138 | 18.0 | 31.0 | 0.00 | 0.00 | 0.00 | 25 | 1009.0 |
| 20260504004153 | 69 | 155 | 17.0 | 34.0 | 0.00 | 0.00 | 0.00 | 24 | 1008.7 |
| 20260504003153 | 69 | 146 | 13.0 | 21.0 | 0.00 | 0.00 | 0.00 | 22 | 1008.7 |
| 20260504002153 | 70 | 138 | 8.0 | 30.0 | 0.00 | 0.00 | 0.00 | 22 | 1008.7 |
| 20260504001154 | 71 | 153 | 18.0 | 31.0 | 0.00 | 0.00 | 0.00 | 21 | 1008.6 |
| 20260504000153 | 71 | 211 | 5.0 | 27.0 | 0.00 | 0.00 | 0.00 | 21 | 1008.7 |
| 20260503234153 | 74 | 204 | 3.0 | 16.0 | 0.00 | 0.00 | 0.00 | 20 | 1008.9 |
| 20260503233153 | 73 | 0 | 0.0 | 17.0 | 0.00 | 0.00 | 0.00 | 20 | 1009.0 |
| 20260503232153 | 72 | 167 | 11.0 | 21.0 | 0.00 | 0.00 | 0.00 | 20 | 1009.1 |
| 20260503231154 | 71 | 213 | 6.0 | 17.0 | 0.00 | 0.00 | 0.00 | 19 | 1009.3 |
| 20260503230153 | 70 | 222 | 5.0 | 16.0 | 0.00 | 0.00 | 0.00 | 18 | 1009.3 |
| 20260503225154 | 71 | 206 | 8.0 | 17.0 | 0.00 | 0.00 | 0.00 | 19 | 1009.4 |
| 20260503224153 | 72 | 195 | 13.0 | 24.0 | 0.00 | 0.00 | 0.00 | 17 | 1009.3 |
| 20260503223154 | 74 | 205 | 10.0 | 17.0 | 0.00 | 0.00 | 0.00 | 16 | 1009.6 |
| 20260503222153 | 73 | 210 | 7.0 | 16.0 | 0.00 | 0.00 | 0.00 | 16 | 1009.8 |
| 20260503221153 | 73 | 197 | 16.0 | 32.0 | 0.00 | 0.00 | 0.00 | 16 | 1009.9 |
| 20260503220153 | 74 | 170 | 6.0 | 21.0 | 0.00 | 0.00 | 0.00 | 17 | 1010.1 |
| 20260503215153 | 74 | 239 | 6.0 | 21.0 | 0.00 | 0.00 | 0.00 | 18 | 1010.5 |
| 20260503214153 | 73 | 195 | 21.0 | 32.0 | 0.00 | 0.00 | 0.00 | 17 | 1010.7 |
| 20260503213153 | 73 | 168 | 18.0 | 30.0 | 0.00 | 0.00 | 0.00 | 17 | 1010.7 |
| 20260503212154 | 74 | 137 | 14.0 | 24.0 | 0.00 | 0.00 | 0.00 | 17 | 1011.1 |
| 20260503211154 | 73 | 181 | 9.0 | 25.0 | 0.00 | 0.00 | 0.00 | 17 | 1011.4 |
| 20260503210154 | 72 | 168 | 7.0 | 27.0 | 0.00 | 0.00 | 0.00 | 18 | 1010.9 |
| 20260503205153 | 73 | 142 | 15.0 | 24.0 | 0.00 | 0.00 | 0.00 | 17 | 1010.9 |
| 20260503204153 | 73 | 158 | 18.0 | 30.0 | 0.00 | 0.00 | 0.00 | 17 | 1011.1 |
| 20260503203154 | 73 | 120 | 8.0 | 16.0 | 0.00 | 0.00 | 0.00 | 18 | 1011.3 |
| 20260503202154 | 72 | 150 | 13.0 | 26.0 | 0.00 | 0.00 | 0.00 | 17 | 1011.5 |
| 20260503201154 | 71 | 163 | 9.0 | 27.0 | 0.00 | 0.00 | 0.00 | 18 | 1011.5 |
| 20260503200155 | 73 | 165 | 19.0 | 28.0 | 0.00 | 0.00 | 0.00 | 16 | 1011.6 |
| 20260503191154 | 71 | 204 | 11.0 | 30.0 | 0.00 | 0.00 | 0.00 | 19 | 1012.7 |
| 20260503190154 | 72 | 115 | 18.0 | 25.0 | 0.00 | 0.00 | 0.00 | 18 | 1012.4 |
| 20260503185154 | 72 | 140 | 20.0 | 29.0 | 0.00 | 0.00 | 0.00 | 17 | 1012.8 |
| 20260503184154 | 71 | 202 | 6.0 | 30.0 | 0.00 | 0.00 | 0.00 | 19 | 1013.1 |
| 20260503183154 | 70 | 153 | 14.0 | 30.0 | 0.00 | 0.00 | 0.00 | 17 | 1013.2 |
| 20260503182155 | 70 | 138 | 11.0 | 19.0 | 0.00 | 0.00 | 0.00 | 19 | 1013.5 |
| 20260503181154 | 70 | 144 | 15.0 | 27.0 | 0.00 | 0.00 | 0.00 | 18 | 1013.8 |
| 20260503180154 | 71 | 106 | 19.0 | 27.0 | 0.00 | 0.00 | 0.00 | 17 | 1013.5 |
| 20260503175154 | 71 | 109 | 12.0 | 23.0 | 0.00 | 0.00 | 0.00 | 17 | 1013.8 |
| 20260503174154 | 71 | 118 | 12.0 | 20.0 | 0.00 | 0.00 | 0.00 | 17 | 1013.8 |
| 20260503172154 | 70 | 158 | 11.0 | 19.0 | 0.00 | 0.00 | 0.00 | 18 | 1014.2 |
| 20260503171154 | 72 | 140 | 10.0 | 16.0 | 0.00 | 0.00 | 0.00 | 17 | 1014.4 |
| 20260503160154 | 67 | 115 | 7.0 | 15.0 | 0.00 | 0.00 | 0.00 | 20 | 1015.0 |
| 20260503150154 | 64 | 186 | 4.0 | 12.0 | 0.00 | 0.00 | 0.00 | 20 | 1015.4 |
| 20260503140154 | 61 | 0 | 0.0 | 5.0 | 0.00 | 0.00 | 0.00 | 20 | 1015.2 |
| 20260503131155 | 59 | 190 | 1.0 | 6.0 | 0.00 | 0.00 | 0.00 | 19 | 1014.0 |
| 20260503130155 | 59 | 198 | 3.0 | 7.0 | 0.00 | 0.00 | 0.00 | 20 | 1014.0 |
| 20260503120155 | 60 | 0 | 0.0 | 2.0 | 0.00 | 0.00 | 0.00 | 18 | 1014.2 |
| 20260503110155 | 60 | 0 | 0.0 | 0.0 | 0.00 | 0.00 | 0.00 | 15 | 1014.5 |
| 20260503100155 | 60 | 204 | 2.0 | 4.0 | 0.00 | 0.00 | 0.00 | 14 | 1014.9 |
| 20260503090155 | 60 | 189 | 5.0 | 9.0 | 0.00 | 0.00 | 0.00 | 15 | 1015.4 |
| 20260503081155 | 62 | 0 | 0.0 | 0.0 | 0.00 | 0.00 | 0.00 | 14 | 1015.9 |
| 20260503080155 | 62 | 0 | 0.0 | 1.0 | 0.00 | 0.00 | 0.00 | 14 | 1016.0 |
| 20260503072155 | 62 | 212 | 3.0 | 8.0 | 0.00 | 0.00 | 0.00 | 14 | 1016.0 |
| 20260503071155 | 61 | 213 | 5.0 | 7.0 | 0.00 | 0.00 | 0.00 | 14 | 1016.1 |
| 20260503070156 | 62 | 0 | 0.0 | 5.0 | 0.00 | 0.00 | 0.00 | 13 | 1016.1 |
| 20260503060155 | 63 | 233 | 2.0 | 6.0 | 0.00 | 0.00 | 0.00 | 12 | 1015.2 |
| 20260503054155 | 63 | 245 | 5.0 | 8.0 | 0.00 | 0.00 | 0.00 | 13 | 1015.3 |
| 20260503053155 | 63 | 232 | 3.0 | 6.0 | 0.00 | 0.00 | 0.00 | 13 | 1015.3 |
| 20260503052156 | 63 | 212 | 3.0 | 6.0 | 0.00 | 0.00 | 0.00 | 13 | 1015.3 |
| 20260503051156 | 63 | 215 | 1.0 | 3.0 | 0.00 | 0.00 | 0.00 | 13 | 1015.3 |
| 20260503050156 | 63 | 211 | 1.0 | 3.0 | 0.00 | 0.00 | 0.00 | 13 | 1015.3 |
| 20260503045156 | 63 | 222 | 1.0 | 5.0 | 0.00 | 0.00 | 0.00 | 13 | 1015.3 |
| 20260503044156 | 63 | 238 | 4.0 | 6.0 | 0.00 | 0.00 | 0.00 | 13 | 1015.2 |
| 20260503043156 | 63 | 239 | 4.0 | 7.0 | 0.00 | 0.00 | 0.00 | 12 | 1015.1 |
| 20260503042156 | 63 | 249 | 4.0 | 7.0 | 0.00 | 0.00 | 0.00 | 12 | 1015.1 |
| 20260503041156 | 63 | 252 | 8.0 | 11.0 | 0.00 | 0.00 | 0.00 | 12 | 1015.0 |
| 20260503040156 | 63 | 243 | 9.0 | 11.0 | 0.00 | 0.00 | 0.00 | 12 | 1014.9 |
| 20260503035156 | 63 | 248 | 9.0 | 10.0 | 0.00 | 0.00 | 0.00 | 12 | 1014.8 |
| 20260503034156 | 63 | 241 | 7.0 | 11.0 | 0.00 | 0.00 | 0.00 | 12 | 1014.6 |
| 20260503033156 | 63 | 247 | 7.0 | 9.0 | 0.00 | 0.00 | 0.00 | 12 | 1014.5 |
| 20260503032156 | 63 | 242 | 7.0 | 12.0 | 0.00 | 0.00 | 0.00 | 13 | 1014.5 |
| 20260503031156 | 63 | 248 | 8.0 | 11.0 | 0.00 | 0.00 | 0.00 | 12 | 1014.4 |
| 20260503030156 | 64 | 246 | 9.0 | 11.0 | 0.00 | 0.00 | 0.00 | 12 | 1014.4 |
| 20260503025156 | 64 | 247 | 8.0 | 11.0 | 0.00 | 0.00 | 0.00 | 12 | 1014.3 |
| 20260503024156 | 64 | 238 | 7.0 | 10.0 | 0.00 | 0.00 | 0.00 | 12 | 1014.2 |
| 20260503023156 | 64 | 248 | 8.0 | 11.0 | 0.00 | 0.00 | 0.00 | 13 | 1014.2 |
| 20260503022156 | 64 | 247 | 5.0 | 10.0 | 0.00 | 0.00 | 0.00 | 13 | 1014.3 |
| 20260503021156 | 65 | 243 | 5.0 | 8.0 | 0.00 | 0.00 | 0.00 | 13 | 1014.3 |